Change the Weather History Date:

Sunday, May 12, 2013

  Actual Average Record
Temperature  
Mean Temperature 66 °F -  
Max Temperature 80 °F 62 °F 88 °F (1960)
Min Temperature 53 °F 36 °F 17 °F (1953)
Cooling Degree Days 2    
Growing Degree Days 16 (Base 50)    
Moisture  
Dew Point 36 °F    
Average Humidity 28    
Maximum Humidity 47    
Minimum Humidity 20    
Precipitation  
Precipitation 0.00 in - - ()
Sea Level Pressure  
Sea Level Pressure 30.12 in    
Wind  
Wind Speed 7 mph (WSW)    
Max Wind Speed 15 mph    
Max Gust Speed 26 mph    
Visibility 10 miles    
Events      
Averages and records for this station are not official NWS values.
T = Trace of Precipitation, MM = Missing Value Source: NWS Daily Summary

Daily Weather History Graph

Daily Weather History Graph

Search for Another Location

Airport or City:

Trip Planner

Search our weather history database for the weather conditions in past years. The results will help you decide how hot, cold, wet, or windy it might be!

Date:

Astronomy

May. 12, 2013 Rise Set
Actual Time 5:51 AM MDT 8:34 PM MDT
Civil Twilight 5:18 AM MDT 9:07 PM MDT
Nautical Twilight 4:35 AM MDT 9:50 PM MDT
Astronomical Twilight 3:47 AM MDT 10:39 PM MDT
Moon 7:48 AM MDT (5/12) 11:04 PM MDT (5/12)
Length of Visible Light 15h 49m
Length of Day
14h 42m
Waxing Crescent, 7% of the Moon is Illuminated
May 12
Waxing Crescent
May 17
First Quarter
May 24
Full
May 31
Last Quarter
Jun 8
New

Hourly Weather History & Observations

Time (MDT) Temp. Dew Point Humidity Pressure Visibility Wind Dir Wind Speed Gust Speed Precip Events Conditions
12:15 AM 60.8 °F 33.8 °F 36% 30.19 in 10.0 mi West 5.8 mph - N/A   Mostly Cloudy
12:55 AM 57.2 °F 33.8 °F 41% 30.20 in 10.0 mi SE 4.6 mph - N/A   Overcast
1:35 AM 59.0 °F 33.8 °F 39% 30.20 in 10.0 mi South 3.5 mph - N/A   Overcast
1:55 AM 59.0 °F 35.6 °F 42% 30.19 in 10.0 mi WSW 3.5 mph - N/A   Mostly Cloudy
2:35 AM 57.2 °F 33.8 °F 41% 30.19 in 10.0 mi Calm Calm - N/A   Scattered Clouds
2:55 AM 55.4 °F 32.0 °F 41% 30.19 in 10.0 mi SSE 4.6 mph - N/A   Partly Cloudy
3:35 AM 53.6 °F 33.8 °F 47% 30.18 in 10.0 mi SSW 6.9 mph - N/A   Mostly Cloudy
3:55 AM 57.2 °F 33.8 °F 41% 30.18 in 10.0 mi SW 9.2 mph - N/A   Mostly Cloudy
4:15 AM 59.0 °F 33.8 °F 39% 30.17 in 10.0 mi WSW 5.8 mph - N/A   Mostly Cloudy
5:55 AM 55.4 °F 33.8 °F 44% 30.17 in 10.0 mi SSW 4.6 mph - N/A   Clear
6:55 AM 60.8 °F 33.8 °F 36% 30.18 in 10.0 mi West 5.8 mph - N/A   Clear
7:15 AM 62.6 °F 33.8 °F 34% 30.18 in 10.0 mi West 6.9 mph - N/A   Clear
7:35 AM 64.4 °F 35.6 °F 34% 30.18 in 10.0 mi West 6.9 mph - N/A   Clear
8:15 AM 64.4 °F 35.6 °F 34% 30.18 in 10.0 mi West 6.9 mph - N/A   Clear
8:35 AM 66.2 °F 37.4 °F 35% 30.17 in 10.0 mi West 6.9 mph - N/A   Clear
8:55 AM 69.8 °F 35.6 °F 28% 30.17 in 10.0 mi West 5.8 mph - N/A   Clear
9:35 AM 71.6 °F 35.6 °F 27% 30.16 in 10.0 mi West 5.8 mph - N/A   Clear
9:55 AM 73.4 °F 35.6 °F 25% 30.16 in 10.0 mi West 8.1 mph - N/A   Clear
10:55 AM 75.2 °F 37.4 °F 25% 30.15 in 10.0 mi West 6.9 mph - N/A   Clear
11:15 AM 75.2 °F 35.6 °F 24% 30.14 in 10.0 mi NNW 9.2 mph - N/A   Clear
11:35 AM 75.2 °F 35.6 °F 24% 30.13 in 10.0 mi SSW 6.9 mph - N/A   Clear
11:55 AM 77.0 °F 35.6 °F 22% 30.12 in 10.0 mi SW 13.8 mph 18.4 mph N/A   Clear
12:15 PM 77.0 °F 33.8 °F 21% 30.12 in 10.0 mi WSW 10.4 mph - N/A   Partly Cloudy
12:35 PM 78.8 °F 39.2 °F 24% 30.12 in 10.0 mi WNW 9.2 mph 18.4 mph N/A   Mostly Cloudy
12:55 PM 78.8 °F 35.6 °F 21% 30.11 in 10.0 mi NW 12.7 mph 17.3 mph N/A   Mostly Cloudy
1:15 PM 78.8 °F 37.4 °F 23% 30.11 in 10.0 mi NW 11.5 mph 18.4 mph N/A   Partly Cloudy
1:35 PM 78.8 °F 37.4 °F 23% 30.11 in 10.0 mi NW 13.8 mph 23.0 mph N/A   Clear
1:55 PM 78.8 °F 35.6 °F 21% 30.11 in 10.0 mi WNW 8.1 mph 26.5 mph N/A   Partly Cloudy
2:15 PM 80.6 °F 37.4 °F 21% 30.10 in 10.0 mi WNW 8.1 mph - N/A   Scattered Clouds
2:55 PM 78.8 °F 37.4 °F 23% 30.10 in 10.0 mi West 9.2 mph 21.9 mph N/A   Mostly Cloudy
3:15 PM 78.8 °F 37.4 °F 23% 30.10 in 10.0 mi WNW 12.7 mph - N/A   Overcast
3:35 PM 80.6 °F 37.4 °F 21% 30.09 in 10.0 mi West 11.5 mph 19.6 mph N/A   Overcast
3:55 PM 78.8 °F 35.6 °F 21% 30.09 in 10.0 mi West 9.2 mph 19.6 mph N/A   Scattered Clouds
4:35 PM 80.6 °F 35.6 °F 20% 30.08 in 10.0 mi WSW 9.2 mph 17.3 mph N/A   Mostly Cloudy
4:55 PM 80.6 °F 37.4 °F 21% 30.08 in 10.0 mi NW 15.0 mph 19.6 mph N/A   Overcast
5:15 PM 78.8 °F 35.6 °F 21% 30.07 in 10.0 mi WSW 13.8 mph - N/A   Overcast
6:35 PM 78.8 °F 35.6 °F 21% 30.06 in 10.0 mi WSW 6.9 mph - N/A   Partly Cloudy
6:55 PM 77.0 °F 35.6 °F 22% 30.06 in 10.0 mi WSW 9.2 mph - N/A   Clear
7:15 PM 75.2 °F 35.6 °F 24% 30.05 in 10.0 mi SW 9.2 mph - N/A   Clear
7:35 PM 75.2 °F 35.6 °F 24% 30.05 in 10.0 mi WSW 6.9 mph - N/A   Clear
7:55 PM 75.2 °F 35.6 °F 24% 30.05 in 10.0 mi WSW 9.2 mph - N/A   Clear
8:15 PM 75.2 °F 35.6 °F 24% 30.06 in 10.0 mi WSW 5.8 mph - N/A   Clear
8:35 PM 75.2 °F 35.6 °F 24% 30.06 in 10.0 mi WSW 5.8 mph - N/A   Clear
8:55 PM 73.4 °F 35.6 °F 25% 30.06 in 10.0 mi WSW 6.9 mph - N/A   Clear
9:15 PM 73.4 °F 35.6 °F 25% 30.06 in 10.0 mi WSW 6.9 mph - N/A   Clear
9:35 PM 71.6 °F 35.6 °F 27% 30.06 in 10.0 mi SW 9.2 mph - N/A   Clear
9:55 PM 69.8 °F 35.6 °F 28% 30.07 in 10.0 mi SSW 11.5 mph - N/A   Clear
10:15 PM 68.0 °F 35.6 °F 30% 30.07 in 10.0 mi SW 9.2 mph - N/A   Clear
10:35 PM 69.8 °F 35.6 °F 28% 30.07 in 10.0 mi SW 10.4 mph - N/A   Clear
11:35 PM 68.0 °F 37.4 °F 33% 30.07 in 10.0 mi WSW 12.7 mph 17.3 mph N/A   Clear
11:55 PM 71.6 °F 35.6 °F 27% 30.06 in 10.0 mi WSW 8.1 mph 17.3 mph N/A   Clear